Погода в Архаре

Россия / Амурская область     49°25′20″N   130°05′13″E
темп.,
°C
ветер,
м/с
пор.,
м/с
влажн.,
%
обл.,
%
осадки,
мм/ч
давл.,
гПа
погр.,
м
8 марта, пн
пн800:00−18ссз229512 0.0 102720
03:00−20сз11966 0.0 102720
06:00−20юв11960 0.0 102720
09:00−16юв359618 0.0 1026150
12:00−9ююв469144 0.0 1023263
15:00−4юв478422 0.0 1019324
18:00−4юв5118122 0.0 1016239
21:00−5ю5108761 0.0 1015186
9 марта, вт
вт900:00−6ююв51090100 0.0 1011216
03:00−7ююв5989100 0.0 1007178
06:00−7ююз3695100 0.1 1005149
09:00−5зсз71193100 1.2 1006666
12:00−6сз101481100 0.2 1009899
15:00−6сз9167894 0.2 10121433
18:00−5сз81591100 0.4 10161262
21:00−6сз7168182 0.4 1020657
10 марта, ср
ср1000:00−10зсз511870 0.0 1023237
03:00−14зсз45910 0.0 102583
06:00−16зсз22910 0.0 102620
09:00−12юв23884 0.0 1025112
12:00−7ююв4787100 0.0 1022289
15:00−1ю5977100 0.0 1019790
18:00−4ююз348184 0.0 101858
21:00−5юз388491 0.0 1019171
11 марта, чт
чт1100:00−9зсз349028 0.0 102057
03:00−10сз349548 0.0 102366
06:00−13сз47920 0.0 1026106
09:00−11сз35900 0.0 1028194
12:00−7зсз35890 0.0 1028315
15:00−5зсз34872 0.0 1027323
18:00−8зсз228942 0.0 102721
21:00−12св118627 0.0 102921
12 марта, пт
пт1200:00−12юв22850 0.0 103021
03:00−13юв22880 0.0 103021
06:00−14юв23910 0.0 103021
09:00−10ююв34880 0.0 1030144
12:00−4ю34860 0.0 1028270
15:00−1ююв23910 0.0 1026223
18:00−3ю23920 0.0 102525
21:00−5ююз23850 0.0 102523